User: anonymous   Login
Location: Unspecified
(0.0000°N, 0.0000°E)
Time: 21:54:52
(UTC+00:00)
Language:

STARLINK-34820 - Orbit

View from above orbital plane
View from above orbital plane
View from above satellite
View from above satellite

Ground track
Ground track

The orbit is defined by the following mean orbital elements,

1 65041U          26145.58335647 +.00000000 +00000-0 -33468-3 0 00006
2 65041  53.1602 296.6140 0000378  54.1691 123.1346 15.34395136    07
Epoch (UTC): 25 May 2026 14:00:01
Eccentricity: 0.0000378
inclination: 53.1602°
perigee height: 462 km
apogee height: 463 km
right ascension of ascending node: 296.6140°
argument of perigee: 54.1691°
revolutions per day: 15.34395136
mean anomaly at epoch: 123.1346°

The dashed part of the orbit path shows where the satellite is in the earth's shadow,  

DLR